FW8254 Weather Reports


time (UTC)temp
C
wind
direction
speed
KPH
gust
KPH
rain 1hr
cm
rain 24hr
cm
rain mn
cm
humidity
%
barometer
mb
20260504081742 8 52 0.0 0.0 0.00 0.00 0.00 86 1013.2
20260504081239 8 52 0.0 0.0 0.00 0.00 0.00 87 1013.2
20260504080735 8 52 0.0 0.0 0.00 0.00 0.00 87 1013.1
20260504080232 8 52 0.0 0.0 0.00 0.00 0.00 87 1013.2
20260504070159 8 52 0.0 0.0 0.00 0.00 0.00 90 1013.2
20260504060120 10 44 0.0 0.0 0.00 0.00 0.00 89 1013.2
20260504050548 11 41 0.0 0.0 0.00 0.00 0.00 88 1013.3
20260504045542 11 41 0.0 1.6 0.00 0.00 0.00 88 1013.5
20260504045037 11 41 0.0 0.0 0.00 0.00 0.00 88 1013.4
20260504044535 11 41 0.0 0.0 0.00 0.00 0.00 88 1013.3
20260504044032 11 41 0.0 0.0 0.00 0.00 0.00 88 1013.5
20260504043529 11 41 0.0 0.0 0.00 0.00 0.00 88 1013.5
20260504043026 11 41 0.0 0.0 0.00 0.00 0.00 88 1013.5
20260504042523 11 41 0.0 0.0 0.00 0.00 0.00 88 1013.3
20260504042020 11 41 0.0 0.0 0.00 0.00 0.00 88 1013.3
20260504041516 11 41 0.0 0.0 0.00 0.00 0.00 87 1013.4
20260504041012 12 41 0.0 0.0 0.00 0.00 0.00 87 1013.4
20260504040510 12 41 0.0 0.0 0.00 0.00 0.00 87 1013.2
20260504040006 12 41 0.0 0.0 0.00 0.03 0.03 87 1013.3
20260504035503 12 41 0.0 0.0 0.00 0.03 0.03 87 1013.4
20260504034959 12 41 0.0 0.0 0.00 0.03 0.03 87 1013.2
20260504034457 12 41 0.0 0.0 0.00 0.03 0.03 87 1013.4
20260504033954 12 41 0.0 0.0 0.00 0.03 0.03 86 1013.3
20260504033452 12 41 0.0 0.0 0.00 0.03 0.03 86 1013.2
20260504032949 12 41 0.0 0.0 0.00 0.03 0.03 86 1013.5
20260504032446 12 41 0.0 0.0 0.00 0.03 0.03 86 1013.1
20260504031942 12 41 0.0 0.0 0.00 0.03 0.03 86 1013.3
20260504031439 12 41 0.0 0.0 0.00 0.03 0.03 86 1013.1
20260504030936 12 41 0.0 1.6 0.00 0.03 0.03 85 1013.3
20260504030433 12 41 0.0 0.0 0.00 0.03 0.03 85 1013.2
20260504025929 12 41 0.0 0.0 0.00 0.03 0.03 85 1013.4
20260504025426 12 41 0.0 0.0 0.00 0.03 0.03 84 1013.2
20260504024923 12 41 0.0 0.0 0.00 0.03 0.03 84 1013.4
20260504024420 13 41 0.0 0.0 0.00 0.03 0.03 84 1013.2
20260504023917 13 41 1.6 1.6 0.00 0.03 0.03 84 1013.0
20260504023413 13 41 0.0 0.0 0.00 0.03 0.03 83 1013.1
20260504022909 13 41 0.0 0.0 0.00 0.03 0.03 82 1013.2
20260504022406 13 41 0.0 0.0 0.00 0.03 0.03 82 1013.0
20260504021902 13 41 0.0 0.0 0.00 0.03 0.03 82 1012.9
20260504021400 13 41 0.0 0.0 0.00 0.03 0.03 81 1013.1
20260504020857 13 41 0.0 0.0 0.00 0.03 0.03 81 1012.9
20260504020353 13 41 0.0 0.0 0.00 0.03 0.03 81 1012.7
20260504015849 13 41 0.0 0.0 0.00 0.03 0.03 80 1012.9
20260504015346 13 41 0.0 0.0 0.00 0.03 0.03 79 1012.7
20260504014842 14 41 0.0 0.0 0.00 0.03 0.03 79 1012.8
20260504014338 14 41 0.0 0.0 0.00 0.03 0.03 79 1012.7
20260504013836 14 41 0.0 1.6 0.00 0.03 0.03 78 1012.6
20260504013333 15 40 1.6 1.6 0.00 0.03 0.03 77 1012.6
20260504012830 15 40 0.0 0.0 0.00 0.03 0.03 77 1012.6
20260504012328 15 40 0.0 1.6 0.00 0.03 0.03 75 1012.6
20260504011825 15 39 1.6 1.6 0.00 0.03 0.03 74 1012.4
20260504011321 15 29 0.0 0.0 0.00 0.03 0.03 73 1012.3
20260504010817 16 29 0.0 0.0 0.00 0.03 0.03 72 1012.2
20260504010313 16 29 0.0 0.0 0.00 0.03 0.03 70 1012.2
20260504005810 16 29 0.0 0.0 0.00 0.03 0.03 67 1012.1
20260504005307 16 29 0.0 0.0 0.00 0.03 0.03 63 1012.1
20260504004804 16 28 1.6 1.6 0.00 0.03 0.03 61 1012.0
20260504004302 16 28 0.0 0.0 0.00 0.03 0.03 57 1011.9
20260504003758 17 28 0.0 0.0 0.00 0.03 0.03 56 1011.9
20260504003255 17 27 0.0 0.0 0.00 0.03 0.03 56 1012.0
20260504002751 17 27 0.0 0.0 0.00 0.03 0.03 56 1011.7
20260504002249 17 27 0.0 0.0 0.00 0.03 0.03 53 1011.8
20260504001746 18 27 0.0 0.0 0.00 0.03 0.03 49 1011.9
20260504001243 18 27 0.0 0.0 0.00 0.03 0.03 48 1012.0
20260504000740 19 27 0.0 1.6 0.00 0.03 0.03 49 1011.9
20260504000237 19 18 1.6 3.2 0.00 0.03 0.03 48 1011.7
20260503235735 20 16 1.6 3.2 0.00 0.03 0.03 45 1011.9
20260503235232 20 348 3.2 4.8 0.00 0.03 0.03 44 1011.7
20260503234730 20 1 1.6 3.2 0.00 0.03 0.03 44 1011.6
20260503234228 20 351 3.2 4.8 0.00 0.03 0.03 42 1011.9
20260503233725 20 317 4.8 4.8 0.00 0.03 0.03 42 1011.6
20260503233220 20 354 3.2 4.8 0.00 0.03 0.03 44 1011.9
20260503232717 20 310 4.8 8.0 0.00 0.03 0.03 42 1011.8
20260503232214 20 317 4.8 4.8 0.00 0.03 0.03 44 1011.8
20260503231713 20 300 4.8 8.0 0.00 0.03 0.03 43 1011.6
20260503231209 20 298 6.4 8.0 0.00 0.03 0.03 44 1011.7
20260503230705 20 302 6.4 8.0 0.00 0.03 0.03 44 1012.0
20260503230202 20 299 8.0 11.3 0.00 0.03 0.03 40 1012.0
20260503225659 20 280 9.7 14.5 0.00 0.03 0.03 41 1011.8
20260503225154 20 279 9.7 14.5 0.00 0.03 0.03 39 1012.0
20260503224652 20 304 4.8 4.8 0.00 0.03 0.03 42 1011.8
20260503224149 20 337 3.2 4.8 0.00 0.03 0.03 43 1011.8
20260503223647 20 343 4.8 8.0 0.00 0.03 0.03 41 1012.0
20260503223143 20 270 6.4 11.3 0.00 0.03 0.03 42 1011.9
20260503222640 20 260 8.0 12.9 0.00 0.03 0.03 44 1011.9
20260503222138 20 341 4.8 4.8 0.00 0.03 0.03 42 1011.9
20260503221636 21 333 4.8 8.0 0.00 0.03 0.03 39 1011.9
20260503221133 20 329 4.8 11.3 0.00 0.03 0.03 42 1012.1
20260503220630 20 34 1.6 1.6 0.00 0.03 0.03 39 1011.9
20260503220127 20 29 0.0 3.2 0.00 0.03 0.03 38 1011.8
20260503215624 20 314 4.8 8.0 0.00 0.03 0.03 41 1012.0
20260503215120 20 346 3.2 8.0 0.00 0.03 0.03 38 1011.8
20260503214619 20 17 1.6 4.8 0.00 0.03 0.03 44 1012.0
20260503214114 20 277 9.7 11.3 0.00 0.03 0.03 43 1011.9
20260503213609 20 289 8.0 9.7 0.00 0.03 0.03 40 1011.9
20260503213104 20 27 1.6 1.6 0.00 0.03 0.03 38 1012.0
20260503212602 20 353 3.2 3.2 0.00 0.03 0.03 40 1012.0
20260503212059 20 284 11.3 12.9 0.00 0.03 0.03 44 1012.1
20260503211556 20 296 6.4 8.0 0.00 0.03 0.03 42 1012.3
20260503211051 20 309 4.8 8.0 0.00 0.03 0.03 41 1012.2
20260503210549 20 23 1.6 1.6 0.00 0.03 0.03 38 1012.2
20260503210044 20 318 4.8 9.7 0.00 0.03 0.03 43 1012.0
20260503205541 20 310 4.8 11.3 0.00 0.03 0.03 38 1012.2
20260503205038 20 316 4.8 9.7 0.00 0.03 0.03 36 1012.1
20260503204534 20 330 4.8 8.0 0.00 0.03 0.03 44 1012.1
20260503204031 20 19 4.8 8.0 0.00 0.03 0.03 40 1012.0
20260503203529 20 291 4.8 8.0 0.00 0.03 0.03 40 1012.3
20260503203026 20 4 3.2 4.8 0.00 0.03 0.03 43 1012.3
20260503202524 20 322 4.8 9.7 0.00 0.03 0.03 41 1012.5
20260503202021 20 298 6.4 8.0 0.00 0.03 0.03 44 1012.5
20260503201520 20 296 14.5 22.5 0.00 0.03 0.03 41 1012.7
20260503201016 20 349 1.6 3.2 0.00 0.03 0.03 43 1012.8
20260503200512 20 298 8.0 11.3 0.00 0.03 0.03 44 1013.1
20260503200009 20 14 4.8 4.8 0.00 0.03 0.03 40 1013.0
20260503195507 20 286 11.3 17.7 0.00 0.03 0.03 42 1013.2
20260503195003 20 331 6.4 9.7 0.00 0.03 0.03 41 1013.2
20260503194501 19 314 8.0 12.9 0.00 0.03 0.03 43 1013.2
20260503193955 19 295 6.4 9.7 0.00 0.03 0.03 43 1013.2
20260503193451 20 332 4.8 9.7 0.00 0.03 0.03 43 1013.5
20260503192947 20 28 0.0 4.8 0.00 0.03 0.03 42 1013.7
20260503192443 19 284 8.0 9.7 0.00 0.03 0.03 47 1013.8
20260503191939 20 328 4.8 9.7 0.00 0.03 0.03 42 1013.9
20260503191437 18 303 4.8 12.9 0.00 0.03 0.03 43 1013.9
20260503190933 19 248 8.0 9.7 0.00 0.03 0.03 42 1013.9
20260503190431 19 333 3.2 4.8 0.00 0.03 0.03 42 1013.9
20260503185927 20 323 3.2 4.8 0.00 0.03 0.03 42 1014.1
20260503185424 20 350 4.8 4.8 0.00 0.03 0.03 40 1014.3
20260503184923 19 67 3.2 4.8 0.00 0.03 0.03 42 1014.4
20260503184420 18 330 4.8 4.8 0.00 0.03 0.03 43 1014.4
20260503183916 18 288 6.4 9.7 0.00 0.03 0.03 44 1014.5
20260503183413 18 312 4.8 4.8 0.00 0.03 0.03 45 1014.5
20260503182910 18 324 4.8 12.9 0.00 0.03 0.03 48 1014.6
20260503182409 18 339 6.4 11.3 0.00 0.03 0.03 46 1014.6
20260503181906 18 358 3.2 4.8 0.00 0.03 0.03 43 1014.8
20260503181403 18 15 3.2 4.8 0.00 0.03 0.03 47 1014.9
20260503180859 18 23 1.6 3.2 0.00 0.03 0.03 48 1014.8
20260503180357 19 18 1.6 3.2 0.00 0.03 0.03 45 1014.8
20260503175853 18 32 1.6 3.2 0.00 0.03 0.03 45 1015.1
20260503175351 18 37 1.6 3.2 0.00 0.03 0.03 46 1015.1
20260503174847 17 27 0.0 1.6 0.00 0.03 0.03 48 1015.2
20260503174345 17 26 1.6 3.2 0.00 0.03 0.03 49 1015.2
20260503173845 18 29 1.6 3.2 0.00 0.03 0.03 48 1015.2
20260503173342 18 7 3.2 3.2 0.00 0.03 0.03 47 1015.2
20260503172838 17 27 0.0 3.2 0.00 0.03 0.03 47 1015.3
20260503172336 17 38 0.0 1.6 0.00 0.03 0.03 47 1015.4
20260503171832 17 27 1.6 1.6 0.00 0.03 0.03 50 1015.3
20260503171329 17 26 4.8 4.8 0.00 0.03 0.03 48 1015.4
20260503170827 17 24 1.6 3.2 0.00 0.03 0.03 49 1015.5
20260503170323 17 51 1.6 3.2 0.00 0.03 0.03 48 1015.5
20260503150715 15 28 1.6 3.2 0.00 0.03 0.03 59 1016.7
20260503150211 15 57 0.0 1.6 0.00 0.03 0.03 57 1016.7
20260503140136 13 47 0.0 1.6 0.00 0.03 0.03 68 1016.6
20260503131105 11 50 0.0 0.0 0.00 0.03 0.03 95 1016.3
20260503130603 11 48 0.0 0.0 0.00 0.03 0.03 96 1016.3
20260503110453 7 38 0.0 0.0 0.00 0.03 0.03 96 1015.0
20260503090338 9 30 1.6 1.6 0.18 0.03 0.03 96 1013.4